TimeEDT,TemperatureF,Dew PointF,Humidity,Sea Level PressureIn,VisibilityMPH,Wind Direction,Wind SpeedMPH,Gust SpeedMPH,PrecipitationIn,Events,Conditions,WindDirDegrees,DateUTC
12:15 AM,50.4,43.0,76,30.11,10.0,ENE,4.6,-,N/A,,Overcast,60,2013-03-18 04:15:00
12:35 AM,49.3,42.1,76,30.12,10.0,ENE,5.8,-,N/A,,Overcast,60,2013-03-18 04:35:00
12:55 AM,49.1,42.1,77,30.12,10.0,NE,4.6,-,N/A,,Overcast,50,2013-03-18 04:55:00
1:15 AM,48.6,41.7,77,30.11,10.0,ENE,4.6,-,N/A,,Overcast,70,2013-03-18 05:15:00
1:35 AM,48.6,41.5,77,30.11,10.0,Calm,Calm,-,N/A,,Overcast,0,2013-03-18 05:35:00
1:55 AM,48.2,41.2,77,30.11,10.0,Calm,Calm,-,N/A,,Overcast,0,2013-03-18 05:55:00
2:15 AM,47.7,40.5,76,30.12,10.0,East,6.9,-,N/A,,Overcast,80,2013-03-18 06:15:00
2:35 AM,47.7,40.5,76,30.12,10.0,ENE,4.6,-,N/A,,Overcast,60,2013-03-18 06:35:00
2:55 AM,47.3,40.1,76,30.11,10.0,ENE,3.5,-,N/A,,Overcast,60,2013-03-18 06:55:00
3:15 AM,46.9,39.7,76,30.11,10.0,ENE,5.8,-,N/A,,Overcast,70,2013-03-18 07:15:00
3:35 AM,46.9,39.7,76,30.10,10.0,ENE,4.6,-,N/A,,Overcast,70,2013-03-18 07:35:00
4:15 AM,46.9,40.1,77,30.10,10.0,ENE,4.6,-,N/A,,Overcast,70,2013-03-18 08:15:00
4:35 AM,46.8,40.3,78,30.09,10.0,Calm,Calm,-,N/A,,Overcast,0,2013-03-18 08:35:00
4:55 AM,46.8,40.5,79,30.09,10.0,ENE,8.1,-,N/A,,Overcast,70,2013-03-18 08:55:00
5:15 AM,46.9,41.0,80,30.09,10.0,Calm,Calm,-,N/A,,Overcast,0,2013-03-18 09:15:00
5:35 AM,46.4,40.3,79,30.11,10.0,Calm,Calm,-,N/A,,Overcast,0,2013-03-18 09:35:00
5:55 AM,46.0,40.1,80,30.11,10.0,NNE,3.5,-,N/A,,Overcast,30,2013-03-18 09:55:00
6:15 AM,45.9,40.8,83,30.11,10.0,Calm,Calm,-,N/A,,Light Drizzle,0,2013-03-18 10:15:00
6:35 AM,45.9,41.0,83,30.11,10.0,Calm,Calm,-,N/A,,Overcast,0,2013-03-18 10:35:00
6:55 AM,46.0,41.0,83,30.12,10.0,NNE,5.8,-,N/A,,Overcast,20,2013-03-18 10:55:00
7:15 AM,45.9,41.4,84,30.14,10.0,NNE,4.6,-,N/A,,Overcast,20,2013-03-18 11:15:00
7:35 AM,45.5,41.5,86,30.14,7.0,North,4.6,-,N/A,,Overcast,10,2013-03-18 11:35:00
7:55 AM,45.5,41.5,86,30.14,7.0,NNE,4.6,-,N/A,,Overcast,20,2013-03-18 11:55:00
8:15 AM,45.3,41.9,88,30.14,7.0,NNE,4.6,-,N/A,,Overcast,20,2013-03-18 12:15:00
8:35 AM,45.1,41.9,88,30.14,5.0,NNE,5.8,-,N/A,,Overcast,30,2013-03-18 12:35:00
8:55 AM,45.5,42.4,89,30.14,7.0,Calm,Calm,-,N/A,,Overcast,0,2013-03-18 12:55:00
9:15 AM,45.3,42.4,90,30.14,7.0,NNE,5.8,-,N/A,,Overcast,30,2013-03-18 13:15:00
9:35 AM,45.7,43.0,90,30.14,7.0,Calm,Calm,-,N/A,,Overcast,0,2013-03-18 13:35:00
9:55 AM,45.9,42.8,89,30.14,7.0,NNE,3.5,-,N/A,,Overcast,20,2013-03-18 13:55:00
10:15 AM,45.1,42.4,90,30.14,7.0,North,5.8,-,N/A,,Overcast,10,2013-03-18 14:15:00
10:35 AM,46.0,43.0,89,30.14,7.0,NE,3.5,-,N/A,,Overcast,50,2013-03-18 14:35:00
10:55 AM,46.2,43.0,88,30.13,7.0,Calm,Calm,-,N/A,,Overcast,0,2013-03-18 14:55:00
11:15 AM,46.6,43.2,88,30.13,7.0,ENE,3.5,-,N/A,,Overcast,60,2013-03-18 15:15:00
11:35 AM,46.9,43.7,88,30.12,7.0,ENE,3.5,-,N/A,,Overcast,60,2013-03-18 15:35:00
11:55 AM,47.8,43.9,86,30.11,7.0,NNE,3.5,-,N/A,,Overcast,30,2013-03-18 15:55:00
12:15 PM,48.6,44.1,84,30.11,7.0,NNE,3.5,-,N/A,,Overcast,30,2013-03-18 16:15:00
12:35 PM,49.1,44.1,83,30.11,7.0,Calm,Calm,-,N/A,,Overcast,0,2013-03-18 16:35:00
12:55 PM,50.2,44.8,82,30.10,7.0,East,4.6,-,N/A,,Overcast,100,2013-03-18 16:55:00
1:15 PM,51.4,45.0,79,30.08,7.0,East,4.6,-,N/A,,Overcast,90,2013-03-18 17:15:00
1:35 PM,53.4,45.3,74,30.07,10.0,Calm,Calm,-,N/A,,Overcast,0,2013-03-18 17:35:00
1:55 PM,54.5,45.9,73,30.06,7.0,Calm,Calm,-,N/A,,Overcast,0,2013-03-18 17:55:00
2:15 PM,54.9,45.9,72,30.05,7.0,Calm,Calm,-,N/A,,Overcast,0,2013-03-18 18:15:00
2:35 PM,55.0,46.2,72,30.04,7.0,NW,3.5,-,N/A,,Overcast,310,2013-03-18 18:35:00
2:55 PM,58.1,46.8,66,30.02,10.0,NW,4.6,-,N/A,,Overcast,320,2013-03-18 18:55:00
3:15 PM,57.9,46.9,67,30.01,10.0,NNW,4.6,-,N/A,,Overcast,330,2013-03-18 19:15:00
3:35 PM,57.6,46.8,67,30.00,10.0,NNW,3.5,-,N/A,,Overcast,340,2013-03-18 19:35:00
4:15 PM,59.0,47.8,66,29.98,10.0,NE,3.5,-,N/A,,Overcast,40,2013-03-18 20:15:00
4:35 PM,59.7,48.0,65,29.97,10.0,North,3.5,-,N/A,,Overcast,360,2013-03-18 20:35:00
4:55 PM,60.3,48.4,65,29.97,10.0,Calm,Calm,-,N/A,,Overcast,0,2013-03-18 20:55:00
5:15 PM,61.0,48.4,63,29.96,10.0,North,3.5,-,N/A,,Overcast,350,2013-03-18 21:15:00
5:35 PM,59.9,48.7,67,29.96,10.0,Calm,Calm,-,N/A,,Overcast,0,2013-03-18 21:35:00
5:55 PM,60.1,48.6,66,29.95,10.0,Calm,Calm,-,N/A,,Overcast,0,2013-03-18 21:55:00
6:15 PM,61.0,49.1,65,29.94,10.0,Calm,Calm,-,N/A,,Overcast,0,2013-03-18 22:15:00
6:35 PM,60.4,49.1,66,29.94,10.0,Calm,Calm,-,N/A,,Overcast,0,2013-03-18 22:35:00
6:55 PM,60.8,49.5,66,29.93,7.0,Calm,Calm,-,N/A,,Mostly Cloudy,0,2013-03-18 22:55:00
7:15 PM,59.7,49.3,68,29.93,10.0,Calm,Calm,-,N/A,,Mostly Cloudy,0,2013-03-18 23:15:00
7:35 PM,59.0,49.3,70,29.93,10.0,Calm,Calm,-,N/A,,Overcast,0,2013-03-18 23:35:00
7:55 PM,59.0,50.0,72,29.92,10.0,Calm,Calm,-,N/A,,Overcast,0,2013-03-18 23:55:00
8:15 PM,59.0,50.2,73,29.92,10.0,Calm,Calm,-,N/A,,Overcast,0,2013-03-19 00:15:00
8:35 PM,58.3,50.0,74,29.93,10.0,Calm,Calm,-,N/A,,Overcast,0,2013-03-19 00:35:00
9:15 PM,57.2,50.0,77,29.92,10.0,Calm,Calm,-,N/A,,Overcast,0,2013-03-19 01:15:00
9:35 PM,56.7,50.0,78,29.91,10.0,Calm,Calm,-,N/A,,Overcast,0,2013-03-19 01:35:00
9:55 PM,56.7,50.4,79,29.90,10.0,Calm,Calm,-,N/A,,Overcast,0,2013-03-19 01:55:00
10:15 PM,56.5,50.0,79,29.92,10.0,NNW,3.5,-,N/A,,Overcast,330,2013-03-19 02:15:00
10:35 PM,55.6,49.1,79,29.92,10.0,North,4.6,-,N/A,,Overcast,360,2013-03-19 02:35:00
10:55 PM,55.4,49.1,79,29.93,10.0,North,4.6,-,N/A,,Overcast,10,2013-03-19 02:55:00
11:15 PM,54.7,48.2,79,29.92,10.0,North,4.6,-,N/A,,Overcast,10,2013-03-19 03:15:00
11:35 PM,54.1,48.0,80,29.91,10.0,NNE,3.5,-,N/A,,Overcast,30,2013-03-19 03:35:00
11:55 PM,53.8,47.8,80,29.93,10.0,NNW,6.9,-,N/A,,Overcast,330,2013-03-19 03:55:00